Weather History for KMFV - December, 2011

Change the Weather History Date:

Tuesday, December 20, 2011

  Actual Average (KWAL) Record (KWAL)
Temperature  
Mean Temperature 50 °F 39 °F  
Max Temperature 57 °F 48 °F 65 °F (2013)
Min Temperature 42 °F 31 °F 7 °F (1989)
Degree Days  
Heating Degree Days 16    
Month to date heating degree days  
Since 1 July heating degree days  
Cooling Degree Days 0    
Month to date cooling degree days  
Year to date cooling degree days  
Moisture  
Dew Point 40 °F    
Average Humidity 69    
Maximum Humidity 93    
Minimum Humidity 51    
Precipitation  
Precipitation 0.01 in 0.11 in 0.56 in (2002)
Month to date precipitation 2.27  
Year to date precipitation 39.68  
Sea Level Pressure  
Sea Level Pressure 30.15 in    
Wind  
Wind Speed 8 mph (SSW)    
Max Wind Speed 15 mph    
Max Gust Speed 25 mph    
Visibility 10 miles    
Events Rain    
T = Trace of Precipitation, MM = Missing Value Source: NWS Daily Summary

Daily Weather History Graph

Daily Weather History Graph

Search for Another Location

Airport or City:

Trip Planner

Search our weather history database for the weather conditions in past years. The results will help you decide how hot, cold, wet, or windy it might be!

Date:

Astronomy

Dec. 20, 2011 Rise Set
Actual Time 7:13 AM EST 4:47 PM EST
Civil Twilight 6:44 AM EST 5:16 PM EST
Nautical Twilight 6:11 AM EST 5:49 PM EST
Astronomical Twilight 5:39 AM EST 6:21 PM EST
Moon 2:34 AM EST (12/20) 1:19 PM EST (12/20)
Length of Visible Light 10h 32m
Length of Day
9h 33m
Waning Crescent, 21% of the Moon is Illuminated
Dec 20
Waning Crescent
Dec 24
New
Jan 1
First Quarter
Jan 9
Full
Jan 16
Last Quarter

Hourly Weather History & Observations

Time (EST) Temp. Windchill Dew Point Humidity Pressure Visibility Wind Dir Wind Speed Gust Speed Precip Events Conditions
12:15 AM 51.8 °F - 35.6 °F 54% 30.11 in 10.0 mi WSW 13.8 mph 20.7 mph N/A   Scattered Clouds
12:35 AM 51.8 °F - 35.6 °F 54% 30.10 in 10.0 mi SW 13.8 mph 19.6 mph N/A   Overcast
12:55 AM 53.6 °F - 35.6 °F 51% 30.09 in 10.0 mi SW 15.0 mph 25.3 mph N/A   Overcast
1:15 AM 53.6 °F - 35.6 °F 51% 30.08 in 10.0 mi SW 15.0 mph 20.7 mph N/A   Overcast
1:35 AM 53.6 °F - 35.6 °F 51% 30.08 in 10.0 mi SW 12.7 mph 18.4 mph N/A   Overcast
1:55 AM 53.6 °F - 35.6 °F 51% 30.09 in 10.0 mi WSW 12.7 mph 18.4 mph N/A   Overcast
2:15 AM 51.8 °F - 35.6 °F 54% 30.10 in 10.0 mi WSW 15.0 mph 19.6 mph N/A   Overcast
2:35 AM 51.8 °F - 35.6 °F 54% 30.10 in 10.0 mi WSW 11.5 mph 18.4 mph N/A   Overcast
2:55 AM 51.8 °F - 37.4 °F 58% 30.10 in 10.0 mi WSW 8.1 mph - N/A   Overcast
3:35 AM 51.8 °F - 35.6 °F 54% 30.10 in 10.0 mi WSW 8.1 mph - N/A   Overcast
3:55 AM 51.8 °F - 37.4 °F 58% 30.10 in 10.0 mi WSW 5.8 mph - N/A   Mostly Cloudy
4:15 AM 51.8 °F - 37.4 °F 58% 30.10 in 10.0 mi West 3.5 mph - N/A   Overcast
4:35 AM 51.8 °F - 37.4 °F 58% 30.11 in 10.0 mi WSW 5.8 mph - N/A   Overcast
4:55 AM 51.8 °F - 37.4 °F 58% 30.12 in 10.0 mi West 6.9 mph - N/A   Mostly Cloudy
5:15 AM 50.0 °F - 37.4 °F 62% 30.13 in 10.0 mi West 6.9 mph - N/A   Scattered Clouds
5:35 AM 50.0 °F - 39.2 °F 66% 30.13 in 10.0 mi WNW 4.6 mph - N/A   Mostly Cloudy
5:55 AM 48.2 °F - 39.2 °F 71% 30.14 in 10.0 mi NW 3.5 mph - N/A   Overcast
6:35 AM 48.2 °F - 39.2 °F 71% 30.15 in 10.0 mi NW 3.5 mph - N/A   Mostly Cloudy
6:55 AM 48.2 °F - 39.2 °F 71% 30.17 in 10.0 mi Calm Calm - N/A   Clear
7:15 AM 48.2 °F - 39.2 °F 71% 30.17 in 10.0 mi Calm Calm - N/A   Clear
8:15 AM 48.2 °F - 39.2 °F 71% 30.17 in 10.0 mi Calm Calm - N/A   Clear
8:35 AM 50.0 °F - 39.2 °F 66% 30.18 in 10.0 mi Calm Calm - N/A   Clear
8:55 AM 50.0 °F - 39.2 °F 66% 30.20 in 10.0 mi WSW 3.5 mph - N/A   Clear
9:15 AM 50.0 °F - 39.2 °F 66% 30.20 in 10.0 mi SW 3.5 mph - N/A   Clear
9:35 AM 51.8 °F - 39.2 °F 62% 30.21 in 10.0 mi SW 4.6 mph - N/A   Clear
10:35 AM 51.8 °F - 39.2 °F 62% 30.21 in 10.0 mi Calm Calm - N/A   Clear
10:55 AM 51.8 °F - 39.2 °F 62% 30.19 in 10.0 mi Calm Calm - N/A   Clear
11:15 AM 53.6 °F - 39.2 °F 58% 30.18 in 10.0 mi Calm Calm - N/A   Clear
2:15 PM 57.2 °F - 42.8 °F 59% 30.14 in 10.0 mi Calm Calm - N/A   Clear
3:15 PM 55.4 °F - 42.8 °F 63% 30.15 in 10.0 mi South 4.6 mph - N/A   Clear
3:35 PM 55.4 °F - 41.0 °F 58% 30.14 in 10.0 mi SE 4.6 mph - N/A   Clear
3:55 PM 53.6 °F - 41.0 °F 62% 30.14 in 10.0 mi SE 3.5 mph - N/A   Clear
4:35 PM 51.8 °F - 41.0 °F 67% 30.15 in 10.0 mi Calm Calm - N/A   Clear
4:55 PM 50.0 °F - 39.2 °F 66% 30.16 in 10.0 mi Calm Calm - N/A   Clear
5:35 PM 46.4 °F - 39.2 °F 76% 30.17 in 10.0 mi Calm Calm - N/A   Clear
5:55 PM 46.4 °F - 39.2 °F 76% 30.17 in 10.0 mi Calm Calm - N/A   Clear
6:35 PM 44.6 °F - 39.2 °F 81% 30.17 in 10.0 mi Calm Calm - N/A   Clear
6:55 PM 44.6 °F - 39.2 °F 81% 30.18 in 10.0 mi Calm Calm - N/A   Clear
7:15 PM 42.8 °F - 37.4 °F 81% 30.18 in 10.0 mi Calm Calm - N/A   Clear
7:35 PM 42.8 °F 41.1 °F 37.4 °F 81% 30.19 in 10.0 mi SE 3.5 mph - N/A   Clear
7:55 PM 42.8 °F 39.3 °F 37.4 °F 81% 30.19 in 10.0 mi SSE 5.8 mph - N/A   Clear
8:15 PM 44.6 °F 41.4 °F 39.2 °F 81% 30.18 in 10.0 mi SE 5.8 mph - N/A   Scattered Clouds
8:35 PM 44.6 °F 42.2 °F 41.0 °F 87% 30.18 in 10.0 mi SE 4.6 mph - N/A   Scattered Clouds
8:55 PM 46.4 °F 44.3 °F 42.8 °F 87% 30.18 in 10.0 mi SE 4.6 mph - N/A   Mostly Cloudy
9:15 PM 48.2 °F - 44.6 °F 87% 30.18 in 10.0 mi SSE 5.8 mph - N/A   Overcast
9:35 PM 48.2 °F - 44.6 °F 87% 30.18 in 10.0 mi SSE 6.9 mph - N/A   Overcast
9:55 PM 50.0 °F - 44.6 °F 82% 30.17 in 10.0 mi SSE 8.1 mph - N/A   Overcast
10:15 PM 51.8 °F - 44.6 °F 76% 30.17 in 10.0 mi SSE 6.9 mph - N/A   Overcast
10:35 PM 51.8 °F - 44.6 °F 76% 30.17 in 10.0 mi South 9.2 mph - N/A Rain Light Rain
10:55 PM 50.0 °F - 46.4 °F 87% 30.17 in 5.0 mi South 8.1 mph - 0.01 in Rain Rain
11:15 PM 48.2 °F - 46.4 °F 93% 30.17 in 10.0 mi South 5.8 mph - N/A   Overcast
11:35 PM 50.0 °F - 46.4 °F 87% 30.16 in 10.0 mi SSE 6.9 mph - N/A   Overcast
11:55 PM 50.0 °F - 46.4 °F 87% 30.15 in 10.0 mi South 5.8 mph - N/A   Overcast